STARLINK-2023 (47605 NORAD) Tracking and Keplerian Element Data

This shows tracking and keplerian element data for the satellite.

Feedback or suggestion? Click here.




ElementValue
Catalog47605
NameSTARLINK-2023
Epoch Orbit176
Epoch Day59.91667824
Epoch Year2021
RAAN2.9412
Inclination53.0543
Eccentricity0.0001309
Argument of Perigee70.2184
Mean Anonmoly278.5805
Mean Motion15.6275438
Decay Rate0.00013423
L11 47605U 21009BK 21059.91667824 .00013423 00000-0 15218-3 0 9997
L22 47605 53.0543 2.9412 0001309 70.2184 278.5805 15.62754380 1767

Live tracking and technical data element details for STARLINK-2023 (NORAD 47605). STARLINK-2023 can be tracked NOW for your location showing map with azimuth and elevation plus other details from your city location.

Track the satellite on the map from your city or location and see movement details for azimuth, elevation, latitude, longitude, range, height, and movement on the map or in text.







IsCatalogInMostPopularTable: catalog: 47605, numindb: 5
Update: records affected: 1



GetName: 47605 STARLINK-2023

Hit Count: updated at: Mon, 01 Mar 2021 15:26:23 GMT